Theta_e
328 327 327 329 332 330 329 328 326 327 326 326 325 328 328 327 328 328 326 328 329 327 327 325 324 325 327 328 328 328 327 326 326 324 321 320 319 317 316 322 334 336 336 335 335 335 333 331 320
327 324 327 330 332 331 328 328 329 327 327 326 327 325 328 330 326 325 329 328 330 329 327 325 324 324 325 326 326 326 324 321 317 314 313 313 314 316 317 317 323 331 333 332 331 330 329 320 315
323 323 329 333 334 331 329 329 328 328 327 327 329 327 329 329 325 327 326 329 330 330 329 326 323 323 323 323 324 322 320 315 314 315 316 316 315 315 315 314 315 319 326 324 315 315 314 316 322
324 326 328 333 334 333 332 331 329 330 330 327 328 331 328 328 325 325 326 324 325 327 329 329 325 323 323 323 321 318 317 314 317 318 319 318 317 316 314 313 311 313 314 311 311 312 319 324 322
322 326 332 334 333 332 331 329 330 330 330 329 328 330 330 329 326 323 320 320 319 321 328 330 328 323 322 322 321 318 316 317 319 319 319 318 316 315 314 313 311 311 328 332 324 324 324 323 321
319 323 331 334 333 330 328 327 327 326 326 327 327 328 328 327 325 320 316 317 315 318 318 328 331 328 322 321 320 319 316 319 320 320 320 319 317 315 314 313 313 324 335 335 329 326 325 325 322
318 322 326 327 326 324 322 323 324 324 321 324 326 326 327 325 316 313 313 310 310 310 313 314 324 331 329 322 321 320 317 319 322 321 321 320 320 318 316 318 319 323 331 331 327 326 327 327 323
315 317 317 317 317 316 319 320 317 316 316 319 317 325 325 314 309 308 309 309 309 310 308 316 319 326 331 329 322 321 319 319 323 322 322 323 321 321 320 323 323 323 325 325 326 332 334 332 325
312 312 310 311 311 311 311 309 308 307 308 308 308 309 309 307 307 307 309 310 309 309 312 309 308 308 315 329 331 324 322 322 324 325 324 324 322 322 321 324 326 325 325 326 329 332 334 334 328
309 308 309 310 310 308 305 305 305 306 307 308 308 307 306 305 305 305 306 307 307 307 309 308 309 311 311 308 317 332 327 326 333 332 330 326 325 324 324 324 326 327 327 327 330 331 333 334 334
306 309 308 306 305 304 304 305 304 305 306 303 302 302 302 303 304 304 304 304 305 305 306 306 306 310 316 312 308 316 332 330 329 332 333 331 331 331 325 325 326 327 328 328 329 330 331 331 332
306 304 303 303 303 302 302 302 303 302 299 298 299 298 299 300 301 302 302 302 303 303 303 304 305 306 314 323 327 316 324 332 331 330 332 333 332 329 329 327 327 327 329 329 330 330 332 332 333
304 303 303 302 300 299 298 301 302 299 295 295 296 296 297 298 299 299 299 300 301 302 303 304 304 305 306 315 325 328 325 330 332 332 332 333 333 329 328 328 326 326 328 328 328 330 332 333 333
300 302 301 300 297 296 295 299 301 299 294 294 295 295 296 296 296 296 298 298 299 300 302 303 303 304 305 307 316 325 329 328 335 334 334 333 335 333 328 328 328 327 327 328 330 332 331 331 333
299 301 301 297 294 293 293 302 297 295 295 296 295 294 294 294 294 293 293 296 298 299 300 301 302 303 305 305 308 318 324 327 332 335 335 336 337 337 334 330 329 329 328 328 331 331 331 332 333
297 300 300 296 292 292 293 299 295 295 296 296 295 294 293 293 293 293 293 294 297 298 299 300 300 301 302 304 305 307 320 325 328 329 333 334 337 337 335 334 331 331 329 329 331 331 330 330 331
295 298 295 294 291 292 293 294 295 294 295 295 295 294 293 293 291 291 292 293 294 296 298 299 300 300 301 302 304 305 306 321 325 326 328 329 335 334 333 333 334 334 330 330 331 332 330 330 330
294 293 292 292 291 291 293 294 295 294 294 294 293 293 293 292 291 290 289 291 294 294 295 297 298 299 300 301 303 304 304 315 321 324 324 327 328 331 333 332 331 332 333 330 331 332 331 330 330
289 290 291 291 290 291 292 294 295 294 293 293 293 292 292 292 291 290 289 287 289 294 295 295 296 298 299 300 301 303 304 306 317 323 324 326 325 327 329 330 331 332 333 331 330 331 332 331 330
290 291 291 291 291 291 292 293 295 294 293 292 292 292 291 291 291 290 289 288 286 286 292 294 294 295 296 297 299 300 302 304 304 320 324 325 325 323 326 328 330 331 331 331 332 331 330 332 331
290 290 290 290 291 292 292 294 296 296 294 293 292 291 291 290 289 289 289 288 287 286 286 290 293 293 294 295 297 299 300 302 303 305 321 323 324 324 322 326 328 330 330 331 332 332 330 332 331
291 289 289 290 292 296 293 297 295 296 295 294 292 291 290 290 289 288 288 287 287 287 285 286 291 293 293 294 296 296 298 300 302 303 312 323 324 325 325 322 326 327 329 330 330 331 331 330 331
291 289 290 291 292 292 294 294 297 295 294 293 292 291 290 289 288 288 287 287 287 286 285 285 287 291 293 294 294 294 294 296 300 303 304 317 323 324 326 324 324 325 326 330 331 330 330 330 329
288 290 291 292 293 297 293 292 296 296 294 292 291 290 289 289 288 288 287 287 286 286 288 288 286 287 291 292 293 294 294 295 298 301 305 306 318 324 324 325 326 326 327 327 329 330 329 330 328
290 291 298 298 299 298 292 291 296 295 292 291 290 289 289 288 288 287 287 286 286 285 286 288 287 286 288 291 294 294 294 294 295 299 303 306 311 321 324 323 327 324 324 327 327 327 329 330 328
288 289 296 298 296 294 290 293 298 294 291 290 289 289 289 288 288 287 286 286 285 285 285 286 288 287 286 288 290 293 293 293 293 295 300 304 309 317 321 320 322 322 321 324 326 326 327 326 326
287 290 287 289 287 288 293 293 293 293 292 290 290 289 288 288 287 287 286 286 285 286 286 285 286 287 287 285 287 290 291 292 293 294 297 302 309 313 318 319 321 321 320 323 324 324 325 324 324
287 288 289 288 293 295 293 291 294 294 294 291 290 289 288 288 287 287 286 286 286 286 286 286 286 286 287 287 287 287 288 290 291 292 294 299 305 310 314 318 320 321 319 320 320 321 321 321 320
286 287 287 287 288 291 291 295 294 293 292 290 289 289 288 288 287 287 286 286 285 285 285 286 286 286 287 286 286 287 287 288 290 291 291 295 299 303 306 311 314 318 319 318 318 317 318 318 319
286 287 288 290 289 287 288 290 290 290 290 289 288 288 288 288 287 286 286 285 284 284 283 284 285 285 286 286 286 286 286 287 288 289 290 292 295 298 301 304 309 311 311 311 312 313 314 315 314
Wind_Speed
5 6 6 4 4 3 2 4 2 4 2 4 2 4 5 7 5 4 15 20 16 11 7 10 14 16 18 19 19 19 19 19 18 17 16 16 15 16 17 18 19 18 17 17 15 14 13 10 8
4 3 3 3 5 6 3 4 8 5 1 2 6 2 4 7 4 7 4 22 27 19 11 12 15 17 18 19 20 20 20 19 18 18 18 17 16 17 17 18 19 20 18 17 16 16 13 11 10
0 1 3 3 3 8 3 6 4 4 5 3 5 4 7 3 2 8 8 27 19 19 15 14 16 18 18 19 21 20 20 20 19 18 18 17 17 18 18 18 19 20 19 18 18 17 14 13 12
3 1 2 6 15 13 11 4 7 12 10 2 5 9 3 5 7 12 22 18 19 16 14 15 16 19 21 22 20 21 22 21 20 19 18 18 18 18 18 18 19 19 18 17 16 16 15 14 11
4 1 6 8 14 12 7 9 11 11 13 7 7 8 12 9 9 9 20 23 24 21 16 16 18 21 22 23 24 24 23 23 22 21 20 19 19 19 19 19 19 19 17 16 15 15 16 15 12
4 2 7 13 15 7 4 5 9 10 10 9 7 9 7 4 4 17 25 27 27 22 20 17 19 23 25 26 26 25 25 25 24 23 21 20 19 19 19 19 20 20 18 18 16 16 17 16 14
4 4 9 14 16 10 5 2 3 6 8 7 8 8 5 4 20 29 28 27 26 24 23 20 18 21 26 29 28 29 28 27 26 25 23 22 21 20 21 21 22 22 22 21 19 19 17 18 15
5 3 5 6 8 6 4 3 8 11 8 8 8 5 8 25 34 33 27 24 22 21 20 19 17 19 23 28 32 32 31 30 29 28 26 24 22 22 23 23 23 23 23 22 21 19 18 17 18
6 4 9 7 7 3 7 10 8 11 13 14 11 20 27 26 30 32 30 26 23 20 18 22 23 22 19 24 30 33 32 31 31 29 29 26 26 26 26 26 26 25 25 24 22 22 21 21 21
5 4 4 2 7 7 12 9 13 9 18 18 22 25 29 31 28 24 26 27 26 25 23 21 23 22 21 23 24 31 35 34 32 31 30 31 30 29 30 29 28 27 26 26 25 25 25 24 25
3 4 1 4 9 16 14 12 15 12 9 24 25 26 25 24 23 22 22 22 22 23 21 21 21 19 20 22 24 27 33 37 37 35 34 32 29 28 32 32 32 31 30 30 29 28 28 30 29
4 1 4 6 14 16 14 14 14 15 12 21 23 24 26 28 28 28 29 29 30 27 25 24 23 21 18 19 21 24 29 34 38 41 38 37 36 38 34 33 33 35 33 33 32 31 30 30 29
2 3 6 10 11 11 13 16 4 11 27 25 25 26 27 27 28 23 23 22 24 28 28 26 23 21 18 18 20 23 26 33 35 38 43 43 43 44 43 42 40 38 38 36 34 32 31 32 29
2 4 6 7 17 9 19 15 1 18 32 26 26 28 26 24 26 26 27 28 29 27 26 28 27 26 24 18 19 23 26 30 36 37 40 44 46 46 47 46 44 42 41 39 35 35 35 33 32
2 2 2 15 23 11 25 9 14 31 24 22 23 26 27 28 27 27 29 31 32 32 30 31 31 27 23 23 20 20 25 30 33 38 39 41 45 47 47 49 47 46 44 42 37 37 39 36 33
3 3 2 10 17 10 17 2 26 29 28 29 27 25 24 26 26 27 29 31 32 33 33 32 33 33 30 26 24 23 21 27 33 35 38 40 44 45 47 50 48 47 47 46 44 40 38 36 33
9 2 6 6 13 15 10 6 17 20 23 25 27 26 26 26 28 30 30 31 33 33 32 32 31 32 33 29 28 27 27 25 29 34 37 40 44 44 46 48 50 49 49 49 46 45 41 39 37
3 3 3 6 8 13 7 6 10 17 20 22 25 29 30 30 30 30 31 31 31 33 32 30 28 29 31 31 28 28 27 22 25 31 37 39 42 44 45 47 47 50 50 50 48 48 45 42 38
1 2 7 4 1 12 4 1 1 10 17 22 23 25 30 31 28 29 31 30 34 32 33 34 32 28 29 30 29 27 26 26 26 27 32 37 42 43 45 47 47 50 54 48 49 46 48 46 42
1 3 7 5 3 7 4 6 4 1 10 14 18 22 25 31 34 33 34 35 33 34 35 33 34 32 28 28 29 30 30 30 31 29 29 34 41 43 46 47 49 49 52 48 50 51 51 50 46
3 6 7 5 11 1 10 3 8 4 3 15 19 20 21 23 28 33 35 35 35 35 36 35 34 33 31 29 28 30 30 29 31 31 33 33 38 44 45 48 50 51 50 53 51 55 52 53 50
3 7 10 8 6 2 6 3 8 5 5 12 20 22 22 25 26 27 30 32 34 36 34 35 33 31 32 31 29 28 30 34 31 30 35 34 35 42 45 44 50 51 50 52 54 52 52 52 56
3 14 7 3 3 3 1 3 4 3 5 11 17 19 21 21 23 26 27 28 29 33 35 36 35 32 30 32 29 28 28 30 35 35 32 41 33 42 44 44 48 49 50 55 49 51 47 56 58
13 2 3 3 2 3 4 4 4 3 2 6 13 18 20 21 21 22 24 26 28 31 37 39 37 34 32 30 30 29 27 28 31 33 33 36 41 38 47 44 47 48 47 48 54 55 40 51 57
9 1 1 2 2 3 5 6 7 7 6 3 9 13 17 19 20 22 25 26 28 30 33 39 39 37 34 31 28 29 29 26 26 28 28 29 42 33 44 43 48 48 49 49 47 52 49 52 58
6 4 3 4 3 4 3 6 3 8 7 2 5 8 13 18 19 20 22 23 24 27 29 33 38 40 37 34 31 28 29 28 25 24 24 24 31 28 46 47 46 45 43 48 50 47 47 50 53
2 3 2 2 2 3 4 5 10 9 9 6 4 10 12 15 17 18 19 21 24 27 28 29 33 37 39 36 34 33 31 29 26 23 22 20 21 35 28 39 43 44 41 49 44 45 46 46 50
2 6 1 2 2 5 4 8 9 11 12 7 5 7 10 12 16 16 18 21 23 26 27 29 30 33 36 38 36 35 35 31 28 24 23 18 15 23 22 34 39 39 34 38 43 42 42 43 45
4 3 2 1 2 3 5 6 5 10 10 8 5 7 8 11 13 17 19 19 21 23 25 27 29 31 33 36 38 37 36 35 32 28 25 21 14 13 13 19 28 35 33 37 38 37 41 40 42
0 3 5 3 4 4 3 10 3 8 10 11 9 13 11 12 15 18 18 20 21 22 23 25 26 29 30 31 34 36 36 35 36 34 31 25 19 11 8 7 16 20 23 23 26 31 33 35 37
Wind_Direction
309 319 321 316 251 243 204 168 232 206 216 172 10 308 352 306 294 355 352 11 346 331 259 217 208 208 206 204 204 206 209 212 214 216 215 212 208 203 198 197 200 200 201 202 202 203 215 224 230
284 312 316 288 261 249 214 211 234 250 41 245 303 180 286 316 275 316 346 344 343 335 290 234 218 214 213 211 211 210 212 215 216 217 216 214 212 208 205 203 203 207 208 209 214 217 221 225 209
35 176 264 261 244 245 259 211 282 354 357 314 306 288 305 290 293 344 319 332 336 332 316 256 231 226 223 218 216 216 217 218 217 217 217 218 218 216 214 211 209 210 214 221 221 219 213 201 198
113 221 239 244 250 252 270 309 306 305 318 346 326 286 272 301 2 343 331 343 343 325 308 292 252 233 232 229 227 222 221 220 220 220 221 222 222 220 218 215 212 210 213 212 206 199 195 198 200
129 219 249 249 262 267 293 294 295 302 305 323 326 299 289 310 341 9 10 4 1 347 312 281 256 243 237 236 232 229 227 224 223 224 224 224 222 218 216 212 208 200 197 196 199 197 200 205 205
161 242 242 257 269 256 302 308 300 298 317 342 308 299 292 307 354 353 344 341 339 343 343 310 278 254 244 240 237 234 233 231 229 227 227 226 224 221 216 210 204 198 197 202 211 210 211 213 209
188 203 265 276 281 291 328 6 333 348 344 11 327 287 308 360 344 333 330 329 327 326 324 326 310 276 258 246 242 238 236 235 235 232 230 228 225 222 217 213 208 206 205 210 217 222 225 221 214
165 218 259 257 289 313 53 66 22 7 3 348 354 288 308 327 322 323 324 326 331 333 333 337 328 303 277 258 249 244 240 239 236 236 235 233 230 226 221 217 215 214 215 218 220 221 225 222 217
144 205 254 269 295 18 23 354 354 327 302 313 299 302 314 326 331 326 322 321 333 334 332 318 311 309 309 284 261 251 247 243 242 239 237 235 231 227 223 221 220 219 220 221 223 227 228 225 223
191 217 239 336 329 338 335 354 332 334 317 321 324 320 320 323 332 334 330 326 327 327 320 321 311 301 296 286 279 263 251 242 240 239 235 232 231 229 227 225 224 223 223 224 226 230 232 228 233
165 245 360 68 8 339 327 339 335 336 341 348 348 344 346 347 350 352 347 340 338 336 334 334 329 310 287 280 277 267 258 248 240 237 236 234 228 228 229 227 224 222 223 225 228 229 234 238 235
205 124 30 346 349 356 342 328 334 36 17 346 339 338 340 339 337 337 334 334 333 335 334 331 332 328 306 277 267 263 261 255 246 241 235 233 232 232 230 227 225 224 225 224 228 232 233 233 231
244 17 346 349 18 21 347 328 321 58 356 348 348 354 354 349 344 341 333 326 325 323 323 321 324 323 318 294 268 262 257 256 254 245 244 237 237 237 236 234 232 229 229 228 231 231 227 228 236
326 308 15 35 7 44 355 321 205 354 346 353 4 3 2 358 352 343 337 336 332 327 321 316 315 314 313 305 281 261 260 255 253 253 248 243 239 237 239 237 236 233 234 232 231 235 228 233 242
343 260 160 30 358 25 338 135 25 348 359 17 17 8 6 1 354 353 346 339 334 328 322 318 314 310 306 302 287 271 258 256 252 250 251 250 244 238 238 239 236 237 235 234 228 236 233 236 242
52 124 6 35 19 1 350 64 9 11 19 22 21 19 13 6 0 354 348 341 334 327 325 319 312 308 304 298 290 273 260 252 251 250 249 250 249 244 241 239 240 234 234 233 228 229 236 241 244
34 20 360 337 28 349 15 27 10 20 28 22 16 16 13 8 3 0 355 348 341 335 328 322 319 311 307 300 290 284 268 255 251 249 246 247 247 249 244 244 241 233 235 233 231 227 233 239 242
18 7 320 306 356 1 39 68 33 21 29 29 15 6 5 6 1 356 354 354 348 339 332 325 322 318 312 308 298 284 277 270 258 249 248 246 247 246 245 245 244 235 243 236 233 231 231 235 240
54 316 320 343 109 334 17 96 81 30 28 20 16 7 359 360 357 356 357 355 354 351 339 332 326 321 319 315 311 297 282 262 248 254 252 246 246 247 245 245 245 236 240 242 234 233 235 233 233
66 340 15 294 314 329 332 300 188 138 42 28 15 8 1 353 354 355 356 357 357 353 351 342 332 327 323 318 314 311 300 282 266 247 243 252 246 247 245 243 242 243 243 241 234 231 235 228 230
51 19 347 311 314 301 307 211 218 213 305 7 13 7 1 358 350 350 353 355 356 355 353 351 343 332 326 319 314 310 304 295 284 260 253 255 247 247 246 244 243 244 244 245 238 232 235 234 229
19 2 323 314 322 4 350 302 227 247 312 356 1 3 358 353 350 348 350 352 354 355 352 351 353 341 331 326 319 315 310 306 297 283 248 247 249 247 245 242 244 243 242 247 245 237 237 232 233
328 331 305 297 253 296 49 273 158 232 270 350 355 354 353 351 348 347 347 348 350 353 353 353 353 352 341 332 329 322 315 307 300 294 278 244 246 250 243 246 242 241 242 243 241 235 234 235 238
317 323 154 177 217 242 131 3 238 219 225 334 346 353 353 351 350 349 347 349 350 354 356 357 356 354 352 343 338 331 323 317 311 303 290 260 242 252 246 245 240 245 246 242 242 237 233 238 234
352 214 220 244 253 308 155 292 279 183 175 336 336 338 348 350 350 351 351 351 351 353 356 358 359 358 356 353 345 339 330 324 319 310 300 284 243 259 243 244 237 241 245 244 245 240 238 235 234
11 359 26 293 292 309 268 231 309 180 185 282 306 319 340 350 350 350 351 350 350 353 356 359 360 1 1 358 355 349 342 334 329 322 307 291 262 265 250 248 246 246 246 247 241 245 242 243 239
43 60 38 97 64 282 256 265 259 199 222 247 305 340 336 342 346 345 348 352 354 355 359 359 2 3 3 1 2 360 353 344 339 335 325 304 264 244 238 247 250 245 244 242 247 243 243 246 241
7 142 167 86 299 280 248 279 265 214 229 247 297 309 322 329 337 337 343 348 355 357 359 1 5 7 6 5 8 6 5 357 349 351 343 327 280 256 232 232 247 237 243 247 244 243 244 243 244
155 174 116 40 248 276 299 264 220 230 206 225 278 290 305 314 322 328 333 339 343 349 353 359 1 4 7 6 8 9 9 9 2 359 359 352 334 290 267 232 230 233 242 242 239 241 241 242 245
272 203 194 221 193 237 278 269 248 226 220 227 264 303 301 304 309 315 320 328 334 338 345 351 357 2 5 5 7 7 10 12 13 8 6 4 358 356 316 257 232 220 223 232 239 240 242 242 241